This is the latest recevied weather packets stored in our database for station/object K1BES. If no packets are shown the sender has not sent any weather packets the latest 10 day(s).
| Time | Temp. | Humidity | Pressure | Rain* | Wind** | Luminosity | Snow |
|---|---|---|---|---|---|---|---|
| 1788609232 | 26.67° C | 97% | 1016.9 hPa | 0 mm | - | 42 W/m² | - |
| 1788608927 | 26.67° C | 97% | 1016.8 hPa | 0 mm | - | 46 W/m² | - |
| 1788608626 | 26.67° C | 97% | 1016.7 hPa | 0 mm | - | 44 W/m² | - |
| 1788608326 | 26.11° C | 97% | 1016.7 hPa | 0 mm | - | 42 W/m² | - |
| 1788608022 | 26.11° C | 97% | 1016.4 hPa | 0 mm | - | 37 W/m² | - |
| 1788607717 | 26.11° C | 97% | 1016.5 hPa | 0 mm | - | 30 W/m² | - |
| 1788607412 | 26.11° C | 97% | 1016.6 hPa | 0 mm | - | 23 W/m² | - |
| 1788607107 | 26.11° C | 97% | 1016.4 hPa | 0 mm | - | 14 W/m² | - |
| 1788606807 | 26.11° C | 97% | 1016.6 hPa | 0 mm | - | 5 W/m² | - |
| 1788606506 | 26.11° C | 97% | 1016.2 hPa | 0 mm | - | 2 W/m² | - |
| 1788606200 | 26.11° C | 97% | 1016.2 hPa | 0 mm | - | 1 W/m² | - |
| 1788605896 | 26.11° C | 97% | 1016.2 hPa | 0 mm | - | 0 W/m² | - |
| 1788605595 | 26.11° C | 97% | 1016.4 hPa | 1.78 mm | - | 0 W/m² | - |
| 1788605295 | 26.11° C | 97% | 1016.2 hPa | 1.78 mm | - | 0 W/m² | - |
| 1788604992 | 26.11° C | 96% | 1016.3 hPa | 0 mm | - | 0 W/m² | - |
| 1788604691 | 26.11° C | 96% | 1016.2 hPa | 0 mm | - | 0 W/m² | - |
| 1788604387 | 26.11° C | 96% | 1016.2 hPa | 0 mm | - | 0 W/m² | - |
| 1788604082 | 26.11° C | 96% | 1016.4 hPa | 0 mm | - | 0 W/m² | - |
| 1788603779 | 26.11° C | 96% | 1016.3 hPa | 0 mm | - | 0 W/m² | - |
| 1788603478 | 26.11° C | 96% | 1016.2 hPa | 0 mm | - | 0 W/m² | - |
| 1788603177 | 26.11° C | 96% | 1016.4 hPa | 0 mm | - | 0 W/m² | - |
| 1788602872 | 26.11° C | 96% | 1016.1 hPa | 0 mm | - | 0 W/m² | - |
| 1788602568 | 26.11° C | 96% | 1016 hPa | 0 mm | - | 0 W/m² | - |
| 1788602267 | 26.11° C | 96% | 1016 hPa | 0 mm | - | 0 W/m² | - |
| 1788601966 | 26.11° C | 96% | 1015.8 hPa | 0 mm | - | 0 W/m² | - |
* Rain latest hour (hover to see other rain measurements)
** Current wind speed in m/s (hover to see current wind gust speed)